ABS-4 (MOBISAT-1)

Last updated on Wed Sep 17 2025 00:02:46 GMT+0000 (Coordinated Universal Time)

1 28184U 04007A 25259.59577873 .00000021 00000+0 00000+0 0 9999 2 28184 5.3441 75.3346 0005365 111.0893 84.8457 1.00274217 49599
UTC large
Height (km)
Speed (km/s)
/
Latitude / Longitude
Inclination (degrees)
Orbital Period (minutes)
Azimuth
Elevation
Range (km)
Doppler Factor

Next 0 passes for location: London (51.5072 / 0.1276)

Sorry there are no passes over London.